This is the latest recevied weather packets stored in our database for station/object DJ4RO-13. If no packets are shown the sender has not sent any weather packets the latest 10 day(s).
| Time | Temp. | Humidity | Pressure | Rain* | Wind** | Luminosity | Snow |
|---|---|---|---|---|---|---|---|
| 1776972046 | 12.22° C | 75% | 1024.9 hPa | 0 mm | - | 0 W/m² | - |
| 1776971732 | 12.78° C | 74% | 1025.1 hPa | 0 mm | - | 0 W/m² | - |
| 1776971432 | 12.78° C | 73% | 1024.9 hPa | 0 mm | - | 0 W/m² | - |
| 1776971073 | 12.78° C | 72% | 1025 hPa | 0 mm | - | 0 W/m² | - |
| 1776970773 | 13.33° C | 71% | 1025.3 hPa | 0 mm | - | 0 W/m² | - |
| 1776970475 | 13.33° C | 71% | 1024.9 hPa | 0 mm | - | 0 W/m² | - |
| 1776970112 | 13.33° C | 70% | 1025 hPa | 0 mm | - | 0 W/m² | - |
| 1776969806 | 13.33° C | 68% | 1024.9 hPa | 0 mm | - | 0 W/m² | - |
| 1776969486 | 13.33° C | 66% | 1025 hPa | 0 mm | - | 0 W/m² | - |
| 1776969169 | 13.33° C | 64% | 1025 hPa | 0 mm | - | 1 W/m² | - |
| 1776968846 | 13.89° C | 63% | 1025 hPa | 0 mm | - | 1 W/m² | - |
| 1776968527 | 13.33° C | 64% | 1024.8 hPa | 0 mm | - | 2 W/m² | - |
| 1776968206 | 13.89° C | 63% | 1024.8 hPa | 0 mm | - | 3 W/m² | - |
| 1776967886 | 14.44° C | 60% | 1024.9 hPa | 0 mm | - | 5 W/m² | - |
| 1776967566 | 14.44° C | 60% | 1024.8 hPa | 0 mm | - | 7 W/m² | - |
| 1776967246 | 15° C | 60% | 1024.9 hPa | 0 mm | - | 9 W/m² | - |
| 1776966932 | 15° C | 58% | 1024.9 hPa | 0 mm | - | 11 W/m² | - |
| 1776966632 | 15.56° C | 57% | 1025 hPa | 0 mm | - | 14 W/m² | - |
| 1776966272 | 16.11° C | 55% | 1024.9 hPa | 0 mm | - | 17 W/m² | - |
| 1776965966 | 16.11° C | 54% | 1024.9 hPa | 0 mm | - | 19 W/m² | - |
| 1776965646 | 16.11° C | 53% | 1025 hPa | 0 mm | - | 22 W/m² | - |
| 1776965326 | 16.67° C | 53% | 1025.2 hPa | 0 mm | - | 24 W/m² | - |
| 1776965006 | 16.67° C | 53% | 1025.1 hPa | 0 mm | - | 27 W/m² | - |
| 1776964686 | 16.67° C | 52% | 1025 hPa | 0 mm | - | 30 W/m² | - |
| 1776964350 | 16.67° C | 52% | 1025.2 hPa | 0 mm | - | 30 W/m² | - |
* Rain latest hour (hover to see other rain measurements)
** Current wind speed in m/s (hover to see current wind gust speed)